This demonstration page uses our WeatherBlox Daily Observations layout. Learn more.

Left ArrowRight Arrow

39.92423, -83.80882

Hourly Observations for January 8, 2015

Temp ( °F °C ) Dew Point ( °F °C ) Humidity (%) Winds ( mph kmh ) Pressure ( in mb ) Visibility ( mi km ) Precip ( " mm )
12:56 am 00:56 Clear -5 -20.5 -12 -24.4 71 71 WSW 10 17 30.71 1040 9 14 0.00 0.00
1:56 am 01:56 Clear -6 -21.1 -12 -24.4 75 75 WSW 10 17 30.71 1040 9 14 0.00 0.00
2:56 am 02:56 Clear -7 -21.6 -13 -25 74 74 WSW 10 17 30.71 1040 9 14 0.00 0.00
3:56 am 03:56 Mostly Clear -7 -21.6 -12 -24.4 78 78 WSW 13 20 30.71 1040 8 13 0.00 0.00
4:49 am 04:49 Mostly Cloudy -8 -22 -13 -25 77 77 WSW 12 19 30.77 1042 7 11 0.00 0.00
4:56 am 04:56 Mostly Cloudy -7 -21.6 -13 -25 74 74 WSW 12 19 30.69 1039 7 11 0.00 0.00
5:13 am 05:13 Partly Cloudy -8 -22 -13 -25 77 77 WSW 12 19 30.74 1041 7 11 0.00 0.00
5:56 am 05:56 Clear -7 -21.6 -13 -25 74 74 WSW 10 17 30.68 1039 8 13 0.00 0.00
6:56 am 06:56 Clear -8 -22.2 -13 -25 78 78 SW 9 15 30.66 1038 8 13 0.00 0.00
7:56 am 07:56 Clear -8 -22.2 -13 -25 78 78 SSW 6 9 30.64 1038 7 11 0.00 0.00
8:56 am 08:56 Sunny -6 -21.1 -11 -23.8 79 79 SSW 8 13 30.62 1037 7 11 0.00 0.00
9:56 am 09:56 Sunny -2 -18.8 -9 -22.7 72 72 SW 12 19 30.59 1036 7 11 0.00 0.00
10:56 am 10:56 Sunny 0 -17.7 -8 -22.2 68 68 SSW 13 20 30.57 1035 7 11 0.00 0.00
11:56 am 11:56 Sunny 2 -16.6 -7 -21.6 66 66 S 9 15 30.51 1033 8 13 0.00 0.00
12:56 pm 12:56 Sunny 6 -14.4 -7 -21.6 55 55 SSW 17 28 30.44 1031 8 13 0.00 0.00
1:56 pm 13:56 Sunny 7 -13.8 -6 -21.1 54 54 S 14 22 30.35 1028 8 13 0.00 0.00
2:56 pm 14:56 Sunny 9 -12.7 -5 -20.5 52 52 S 17 28 30.32 1027 8 13 0.00 0.00
3:56 pm 15:56 Partly Cloudy 10 -12.2 -3 -19.4 55 55 S 12 19 30.28 1026 9 14 0.00 0.00
4:56 pm 16:56 Partly Cloudy 11 -11.6 -1 -18.3 58 58 S 12 19 30.24 1024 9 14 0.00 0.00
5:56 pm 17:56 Mostly Cloudy 12 -11.1 1 -17.2 61 61 S 15 24 30.17 1022 10 16 0.00 0.00
6:56 pm 18:56 Mostly Cloudy 14 -10 1 -17.2 56 56 SSW 14 22 30.13 1020 10 16 0.00 0.00
7:56 pm 19:56 Cloudy 15 -9.4 2 -16.6 56 56 SSW 16 26 30.10 1019 9 14 0.00 0.00
8:56 pm 20:56 Cloudy 17 -8.3 3 -16.1 54 54 SW 21 33 30.07 1018 9 14 0.00 0.00
9:56 pm 21:56 Cloudy 17 -8.3 7 -13.8 65 65 SW 21 33 30.04 1017 7 11 0.00 0.00
10:56 pm 22:56 Cloudy 18 -7.7 9 -12.7 68 68 SW 22 35 30.01 1016 7 11 0.00 0.00
11:56 pm 23:56 Cloudy 19 -7.2 7 -13.8 60 60 WSW 26 43 29.98 1015 7 11 0.00 0.00

Powered by AerisWeather